VTDKP VOBL-VOSM

Flight info

Callsign VTDKP
Flight time 0h 35m
Altitude 9500
Route DCT
Aircraft DA42/L-SBDGRY/S

Departure

Time 2026-04-27 07:34
Airport Kempegowda International Airport Bengaluru (VOBL)

Arrival

Time 2026-04-27 08:09
Airport Salem Airport (VOSM)
Time Latitude Longitude Altitude Speed Heading
2026-04-27 07:23 13.20371 77.69458 2963 ft 0 kts
2026-04-27 07:24 13.20374 77.69457 2963 ft 1 kts 348°
2026-04-27 07:24 13.20362 77.69454 2963 ft 5 kts 159°
2026-04-27 07:24 13.20334 77.69457 2959 ft 0 kts 180°
2026-04-27 07:26 13.20328 77.69458 2961 ft 5 kts 176°
2026-04-27 07:26 13.20289 77.69450 2963 ft 7 kts 254°
2026-04-27 07:26 13.20293 77.69401 2963 ft 7 kts 270°
2026-04-27 07:27 13.20303 77.69348 2957 ft 8 kts 313°
2026-04-27 07:27 13.20361 77.69337 2957 ft 9 kts
2026-04-27 07:27 13.20427 77.69336 2963 ft 10 kts
2026-04-27 07:27 13.20502 77.69337 2955 ft 12 kts 359°
2026-04-27 07:28 13.20538 77.69399 2961 ft 11 kts 92°
2026-04-27 07:28 13.20537 77.69475 2961 ft 10 kts 89°
2026-04-27 07:28 13.20536 77.69537 2962 ft 8 kts 92°
2026-04-27 07:28 13.20536 77.69585 2963 ft 6 kts 90°
2026-04-27 07:29 13.20535 77.69636 2965 ft 12 kts 91°
2026-04-27 07:29 13.20535 77.69744 2966 ft 15 kts 89°
2026-04-27 07:29 13.20534 77.69846 2965 ft 14 kts 92°
2026-04-27 07:29 13.20533 77.69958 2965 ft 18 kts 89°
2026-04-27 07:30 13.20532 77.70072 2966 ft 14 kts 92°
2026-04-27 07:30 13.20532 77.70161 2967 ft 11 kts 91°
2026-04-27 07:30 13.20531 77.70250 2967 ft 18 kts 90°
2026-04-27 07:30 13.20530 77.70383 2964 ft 17 kts 87°
2026-04-27 07:31 13.20529 77.70496 2963 ft 15 kts 92°
2026-04-27 07:31 13.20528 77.70611 2963 ft 18 kts 91°
2026-04-27 07:31 13.20527 77.70734 2962 ft 16 kts 91°
2026-04-27 07:31 13.20526 77.70853 2959 ft 19 kts 92°
2026-04-27 07:32 13.20525 77.70983 2959 ft 16 kts 92°
2026-04-27 07:32 13.20523 77.71087 2960 ft 13 kts 92°
2026-04-27 07:32 13.20521 77.71170 2960 ft 10 kts 90°
2026-04-27 07:32 13.20574 77.71179 2954 ft 8 kts
2026-04-27 07:33 13.20628 77.71178 2960 ft 8 kts
2026-04-27 07:33 13.20680 77.71180 2958 ft 8 kts 350°
2026-04-27 07:33 13.20693 77.71025 2962 ft 51 kts 273°
2026-04-27 07:33 13.20702 77.70469 2985 ft 96 kts 267°
2026-04-27 07:34 13.20714 77.69742 3228 ft 108 kts 266°
2026-04-27 07:34 13.20690 77.68968 3595 ft 107 kts 255°
2026-04-27 07:34 13.20275 77.68370 3979 ft 106 kts 210°
2026-04-27 07:34 13.19565 77.68260 4324 ft 106 kts 163°
2026-04-27 07:35 13.18985 77.68711 4702 ft 108 kts 123°
2026-04-27 07:35 13.18580 77.69379 5055 ft 112 kts 120°
2026-04-27 07:35 13.18177 77.70058 5402 ft 111 kts 120°
2026-04-27 07:35 13.17756 77.70706 5746 ft 110 kts 129°
2026-04-27 07:36 13.17147 77.71168 6102 ft 110 kts 158°
2026-04-27 07:36 13.16420 77.71403 6460 ft 110 kts 163°
2026-04-27 07:36 13.15681 77.71608 6799 ft 110 kts 163°
2026-04-27 07:36 13.14940 77.71802 7111 ft 110 kts 163°
2026-04-27 07:37 13.14203 77.71992 7461 ft 109 kts 163°
2026-04-27 07:37 13.13469 77.72180 7780 ft 110 kts 163°
2026-04-27 07:37 13.12717 77.72372 8091 ft 112 kts 162°
2026-04-27 07:37 13.11959 77.72565 8401 ft 115 kts 162°
2026-04-27 07:38 13.11171 77.72765 8724 ft 118 kts 161°
2026-04-27 07:38 13.10361 77.72970 9039 ft 122 kts 161°
2026-04-27 07:38 13.09531 77.73181 9360 ft 124 kts 161°
2026-04-27 07:38 13.08648 77.73406 9469 ft 140 kts 161°
2026-04-27 07:39 13.07646 77.73656 9473 ft 155 kts 162°
2026-04-27 07:39 13.06564 77.73931 9476 ft 165 kts 162°
2026-04-27 07:39 13.05431 77.74221 9474 ft 171 kts 162°
2026-04-27 07:39 13.04267 77.74518 9475 ft 174 kts 162°
2026-04-27 07:40 13.03082 77.74820 9475 ft 176 kts 162°
2026-04-27 07:40 13.01906 77.75118 9474 ft 177 kts 162°
2026-04-27 07:40 13.00707 77.75421 9475 ft 178 kts 162°
2026-04-27 07:40 12.99505 77.75725 9475 ft 178 kts 162°
2026-04-27 07:41 12.98302 77.76032 9474 ft 178 kts 162°
2026-04-27 07:41 12.97097 77.76340 9475 ft 179 kts 162°
2026-04-27 07:41 12.95887 77.76647 9476 ft 179 kts 162°
2026-04-27 07:41 12.94679 77.76954 9475 ft 179 kts 162°
2026-04-27 07:42 12.93469 77.77261 9476 ft 179 kts 162°
2026-04-27 07:42 12.92261 77.77571 9474 ft 179 kts 162°
2026-04-27 07:42 12.91051 77.77880 9475 ft 179 kts 162°
2026-04-27 07:42 12.89859 77.78181 9474 ft 179 kts 162°
2026-04-27 07:43 12.88650 77.78486 9474 ft 179 kts 162°
2026-04-27 07:43 12.87439 77.78793 9475 ft 179 kts 162°
2026-04-27 07:43 12.86225 77.79101 9476 ft 180 kts 162°
2026-04-27 07:43 12.85012 77.79410 9475 ft 180 kts 162°
2026-04-27 07:44 12.83798 77.79720 9471 ft 180 kts 161°
2026-04-27 07:44 12.82581 77.80026 9472 ft 180 kts 161°
2026-04-27 07:44 12.81365 77.80333 9473 ft 180 kts 161°
2026-04-27 07:44 12.80170 77.80636 9471 ft 179 kts 161°
2026-04-27 07:45 12.78960 77.80944 9472 ft 179 kts 161°
2026-04-27 07:45 12.77749 77.81251 9451 ft 179 kts 161°
2026-04-27 07:45 12.76537 77.81558 9440 ft 180 kts 161°
2026-04-27 07:45 12.75323 77.81866 9440 ft 180 kts 161°
2026-04-27 07:46 12.74110 77.82174 9439 ft 180 kts 161°
2026-04-27 07:46 12.72893 77.82482 9439 ft 180 kts 161°
2026-04-27 07:46 12.71676 77.82791 9440 ft 180 kts 161°
2026-04-27 07:46 12.70458 77.83099 9440 ft 180 kts 161°
2026-04-27 07:47 12.69239 77.83408 9439 ft 180 kts 161°
2026-04-27 07:47 12.68022 77.83716 9440 ft 180 kts 161°
2026-04-27 07:47 12.66822 77.84020 9439 ft 180 kts 161°
2026-04-27 07:47 12.65607 77.84328 9440 ft 180 kts 161°
2026-04-27 07:48 12.64389 77.84636 9437 ft 180 kts 161°
2026-04-27 07:48 12.63173 77.84945 9424 ft 180 kts 161°
2026-04-27 07:48 12.61958 77.85253 9423 ft 180 kts 161°
2026-04-27 07:48 12.60740 77.85561 9423 ft 180 kts 161°
2026-04-27 07:49 12.59519 77.85870 9429 ft 180 kts 161°
2026-04-27 07:49 12.58304 77.86178 9429 ft 180 kts 161°
2026-04-27 07:49 12.57105 77.86481 9429 ft 180 kts 161°
2026-04-27 07:49 12.55891 77.86789 9428 ft 180 kts 161°
2026-04-27 07:50 12.54678 77.87096 9423 ft 180 kts 161°
2026-04-27 07:50 12.53461 77.87403 9423 ft 180 kts 161°
2026-04-27 07:50 12.52243 77.87711 9427 ft 181 kts 161°
2026-04-27 07:50 12.51019 77.88022 9425 ft 181 kts 161°
2026-04-27 07:51 12.49793 77.88333 9425 ft 181 kts 161°
2026-04-27 07:51 12.48568 77.88642 9405 ft 181 kts 162°
2026-04-27 07:51 12.47359 77.88947 9403 ft 182 kts 162°
2026-04-27 07:51 12.46132 77.89256 9401 ft 181 kts 162°
2026-04-27 07:52 12.44907 77.89565 9408 ft 182 kts 161°
2026-04-27 07:52 12.43668 77.89881 9402 ft 184 kts 162°
2026-04-27 07:52 12.42423 77.90197 9401 ft 184 kts 162°
2026-04-27 07:52 12.41178 77.90509 9395 ft 184 kts 162°
2026-04-27 07:53 12.39941 77.90823 9393 ft 183 kts 162°
2026-04-27 07:53 12.38706 77.91135 9389 ft 183 kts 162°
2026-04-27 07:53 12.37480 77.91443 9386 ft 180 kts 162°
2026-04-27 07:53 12.36291 77.91744 9402 ft 179 kts 161°
2026-04-27 07:54 12.35076 77.92049 9383 ft 180 kts 162°
2026-04-27 07:54 12.33864 77.92359 9381 ft 179 kts 161°
2026-04-27 07:54 12.32661 77.92662 9378 ft 177 kts 161°
2026-04-27 07:54 12.31460 77.92969 9385 ft 179 kts 162°
2026-04-27 07:55 12.30246 77.93275 9383 ft 180 kts 162°
2026-04-27 07:55 12.29023 77.93583 9383 ft 181 kts 162°
2026-04-27 07:55 12.27798 77.93891 9377 ft 181 kts 162°
2026-04-27 07:55 12.26573 77.94201 9380 ft 183 kts 162°
2026-04-27 07:56 12.25357 77.94506 9264 ft 183 kts 162°
2026-04-27 07:56 12.24123 77.94817 9016 ft 182 kts 162°
2026-04-27 07:56 12.22903 77.95124 8767 ft 179 kts 162°
2026-04-27 07:56 12.21711 77.95427 8522 ft 175 kts 163°
2026-04-27 07:57 12.20538 77.95723 8264 ft 172 kts 163°
2026-04-27 07:57 12.19386 77.96013 8012 ft 169 kts 162°
2026-04-27 07:57 12.18256 77.96299 7775 ft 166 kts 163°
2026-04-27 07:57 12.17141 77.96580 7537 ft 164 kts 163°
2026-04-27 07:58 12.16044 77.96857 7303 ft 161 kts 163°
2026-04-27 07:58 12.14975 77.97127 7073 ft 160 kts 163°
2026-04-27 07:58 12.13904 77.97397 6836 ft 157 kts 163°
2026-04-27 07:58 12.12852 77.97662 6604 ft 154 kts 163°
2026-04-27 07:59 12.11822 77.97925 6385 ft 152 kts 164°
2026-04-27 07:59 12.09783 77.98437 5903 ft 150 kts 165°
2026-04-27 07:59 12.08777 77.98691 5664 ft 149 kts 165°
2026-04-27 08:00 12.07775 77.98944 5426 ft 148 kts 165°
2026-04-27 08:00 12.06776 77.99196 5175 ft 148 kts 165°
2026-04-27 08:00 12.05794 77.99443 4944 ft 147 kts 165°
2026-04-27 08:00 12.04801 77.99694 4709 ft 147 kts 165°
2026-04-27 08:01 12.03811 77.99944 4474 ft 146 kts 166°
2026-04-27 08:01 12.02823 78.00193 4235 ft 146 kts 166°
2026-04-27 08:01 12.01839 78.00441 3997 ft 146 kts 166°
2026-04-27 08:01 12.00857 78.00688 3761 ft 145 kts 166°
2026-04-27 08:02 11.99880 78.00935 3527 ft 144 kts 166°
2026-04-27 08:02 11.98904 78.01180 3302 ft 145 kts 166°
2026-04-27 08:02 11.97932 78.01425 3092 ft 143 kts 166°
2026-04-27 08:02 11.96982 78.01665 2911 ft 141 kts 167°
2026-04-27 08:03 11.96032 78.01905 2764 ft 141 kts 167°
2026-04-27 08:03 11.95083 78.02142 2589 ft 140 kts 167°
2026-04-27 08:03 11.94150 78.02376 2418 ft 136 kts 166°
2026-04-27 08:03 11.93249 78.02604 2288 ft 130 kts 167°
2026-04-27 08:04 11.92396 78.02820 2167 ft 122 kts 166°
2026-04-27 08:04 11.91600 78.03024 2094 ft 115 kts 168°
2026-04-27 08:04 11.90806 78.03222 2024 ft 123 kts 168°
2026-04-27 08:04 11.89935 78.03442 1952 ft 135 kts 166°
2026-04-27 08:05 11.89008 78.03674 1915 ft 139 kts 167°
2026-04-27 08:05 11.88083 78.03909 1937 ft 137 kts 166°
2026-04-27 08:05 11.87147 78.04144 1931 ft 139 kts 167°
2026-04-27 08:05 11.86227 78.04441 1915 ft 140 kts 148°
2026-04-27 08:06 11.85666 78.05234 1935 ft 141 kts 113°
2026-04-27 08:06 11.85361 78.06199 1893 ft 144 kts 108°
2026-04-27 08:06 11.85062 78.07161 1901 ft 144 kts 109°
2026-04-27 08:06 11.84746 78.08120 1900 ft 144 kts 113°
2026-04-27 08:07 11.84357 78.09061 1902 ft 144 kts 115°
2026-04-27 08:07 11.83867 78.09960 1934 ft 145 kts 133°
2026-04-27 08:07 11.83001 78.10137 1985 ft 135 kts 207°
2026-04-27 08:07 11.82248 78.09587 1895 ft 128 kts 216°
2026-04-27 08:08 11.81606 78.09109 2020 ft 107 kts 214°
2026-04-27 08:08 11.81050 78.08620 1912 ft 102 kts 222°
2026-04-27 08:08 11.80537 78.08127 1796 ft 95 kts 217°
2026-04-27 08:08 11.80045 78.07724 1599 ft 82 kts 215°
2026-04-27 08:09 11.79606 78.07409 1329 ft 85 kts 213°
2026-04-27 08:09 11.79115 78.07071 1220 ft 83 kts 216°
2026-04-27 08:09 11.78672 78.06760 1028 ft 73 kts 214°
2026-04-27 08:09 11.78341 78.06528 1011 ft 44 kts 212°
2026-04-27 08:10 11.78216 78.06432 1011 ft 8 kts 278°
2026-04-27 08:10 11.78246 78.06383 1011 ft 8 kts 304°
2026-04-27 08:10 11.78281 78.06329 1009 ft 10 kts 285°
2026-04-27 08:10 11.78261 78.06298 1009 ft 3 kts 271°
2026-04-27 08:11 11.78274 78.06277 1008 ft 4 kts 307°
2026-04-27 08:11 11.78276 78.06273 1008 ft 0 kts 303°